Location: Baia Mare
(47.6567°N, 23.5850°E)
Time: 13:31:20
(UTC+03:00)

ISS - Pass Details

Date: 25 July 2019
Orbit: 409 x 418 km, 51.6° (Epoch: 21 July)

Event Time Altitude Azimuth Distance (km) Brightness Sun altitude
Rises 01:35:31 0° 292° (WNW) 2,351 0.3 -22.6°
Reaches altitude 10° 01:37:41 10° 285° (WNW) 1,484 -0.8 -22.6°
Enters shadow 01:37:59 12° 284° (WNW) 1,365 -1.0 -22.6°
